Location: Caltech
(34.1382°N, 118.1253°W)
Time: 18:46:27
(UTC-07:00)

PCSat - Visible Passes

Search period start: 24 June 2016 00:00
Search period end: 04 July 2016 00:00
Orbit: 785 x 795 km, 67.1° (Epoch: 23 June)

Date Brightness Start Highest point End Pass type
(mag) Time Alt. Az. Time Alt. Az. Time Alt. Az.
24 Jun 10.4 02:44:45 38° ESE 02:45:12 39° ESE 02:50:13 10° NE visible
24 Jun 11.0 04:25:28 15° W 04:28:40 25° NW 04:33:06 10° N visible
25 Jun 11.0 02:14:50 27° E 02:14:50 27° E 02:19:01 10° NE visible
25 Jun 10.5 03:55:34 25° W 03:57:42 34° WNW 04:02:37 10° N visible
26 Jun 11.6 01:44:54 18° E 01:44:54 18° E 01:47:33 10° ENE visible
26 Jun 10.0 03:25:37 41° W 03:26:47 47° WNW 03:32:02 10° NNE visible
27 Jun 12.0 01:14:55 11° E 01:14:55 11° E 01:15:31 10° ENE visible
27 Jun 9.5 02:55:37 66° W 02:55:55 67° WNW 03:01:20 10° NNE visible
28 Jun 9.6 02:25:36 74° NE 02:25:36 74° NE 02:30:33 10° NNE visible
28 Jun 11.8 04:06:50 10° WNW 04:09:10 13° NW 04:11:32 10° NNW visible
29 Jun 10.3 01:55:31 48° ENE 01:55:31 48° ENE 01:59:39 10° NNE visible
29 Jun 11.5 03:36:14 15° WNW 03:38:06 17° NW 03:41:39 10° N visible
30 Jun 10.9 01:25:25 31° ENE 01:25:25 31° ENE 01:28:38 10° NE visible
30 Jun 11.1 03:06:08 22° WNW 03:07:05 24° NW 03:11:23 10° N visible
01 Jul 11.5 00:55:17 21° ENE 00:55:17 21° ENE 00:57:28 10° NE visible
01 Jul 10.7 02:35:59 32° WNW 02:36:06 32° WNW 02:40:57 10° N visible
02 Jul 11.9 00:25:06 14° ENE 00:25:06 14° ENE 00:26:04 10° ENE visible
02 Jul 10.4 02:05:48 42° NW 02:05:48 42° NW 02:10:22 10° NNE visible
03 Jul 10.4 01:35:35 48° N 01:35:35 48° N 01:39:42 10° NNE visible
